Home   Weather   Past weeks

Flag for Moldova Past Weather in Chișinău, Moldova — Yesterday and Last 2 Weeks

Now
32 °F

Ice fog.


Feels Like: 24 °F
Forecast: 41 / 58 °F
Wind: 9 mph from South

Location: Chisinau International Airport

Current Time: Feb 28, 2017 at 5:16:36 am

Latest Report: Feb 28, 2017 at 4:30 am


Visibility: 0 mi

Pressure: 30.01 "Hg

Humidity: 100%

Dew Point: 32 °F

Location of ChișinăuLocation

Past Weather in Chișinău — Graph

°F

Chișinău Temperature Yesterday

Maximum temperature yesterday: 55 °F (at 2:00 pm)
Minimum temperature yesterday: 34 °F (at 7:30 am)
Average temperature yesterday: 44 °F

High & Low Weather Summary for the Past Weeks

 TemperatureHumidityPressure
High59 °F (Feb 24, 1:30 pm)100% (Feb 17, 3:30 am)30.66 "Hg (Feb 17, 3:30 am)
Low16 °F (Feb 14, 5:30 am)35% (Feb 27, 1:00 pm)29.56 "Hg (Feb 23, 7:00 am)
Average36 °F76%30.11 "Hg
* Reported Feb 13 4:00 am — Feb 28 4:00 am, Chișinău, Weather by CustomWeather, © 2017

Note: Actual official high and low records may vary slightly from our data, if they occured in-between our weather recording intervals... More about our weather records

Advertising

Chișinău Weather History for the Previous 24 Hours

Scroll right to see more
 ConditionsComfort  
Time TempWeatherWind HumidityBarometerVisibility
4:00 am
Tue, Feb 28
34 °FFog.7 mph93%30.01 "Hg0 mi
3:30 am34 °FFog.6 mph100%30.04 "Hg0 mi
3:00 am34 °FFog.5 mph100%30.04 "Hg0 mi
2:30 am34 °FFog.5 mph100%30.04 "Hg0 mi
2:00 am36 °FFog.9 mph93%30.04 "Hg0 mi
1:30 am36 °FLight fog.9 mph93%30.04 "Hg0 mi
1:00 am37 °FClear.7 mph87%30.04 "Hg4 mi
12:30 am39 °FPassing clouds.6 mph81%30.04 "HgN/A
12:00 am39 °FClear.7 mph81%30.04 "Hg10 mi
11:30 pm
Mon, Feb 27
41 °FClear.8 mph76%30.04 "Hg10 mi
11:00 pm41 °FClear.7 mph76%30.07 "Hg10 mi
10:30 pm43 °FClear.8 mph71%30.07 "Hg10 mi
10:00 pm43 °FClear.9 mph71%30.07 "Hg10 mi
9:30 pm41 °FClear.8 mph76%30.07 "Hg10 mi
9:00 pm43 °FClear.8 mph66%30.07 "Hg10 mi
8:30 pm45 °FClear.7 mph61%30.04 "Hg10 mi
8:00 pm45 °FClear.6 mph66%30.07 "Hg10 mi
7:30 pm46 °FClear.6 mph62%30.07 "Hg10 mi
7:00 pm46 °FClear.6 mph62%30.04 "Hg10 mi
6:30 pm48 °FClear.6 mph54%30.04 "Hg10 mi
6:00 pm50 °FClear.6 mph50%30.04 "Hg10 mi
5:30 pm52 °FSunny.6 mph47%30.04 "Hg10 mi
5:00 pm54 °FSunny.6 mph44%30.04 "Hg10 mi
4:30 pm55 °FSunny.2 mph38%30.04 "Hg10 mi
4:00 pm55 °FPassing clouds.5 mph41%30.04 "HgN/A
3:30 pm55 °FSunny.3 mph41%30.04 "Hg10 mi
3:00 pm55 °FPassing clouds.3 mph36%30.04 "HgN/A
2:30 pm55 °FSunny.1 mph36%30.04 "Hg10 mi
2:00 pm55 °FSunny.3 mph38%30.04 "Hg10 mi
1:30 pm54 °FSunny.3 mph38%30.07 "Hg10 mi
1:00 pm54 °FSunny.3 mph35%30.07 "Hg10 mi
12:30 pm52 °FPassing clouds.3 mph44%30.07 "HgN/A
12:00 pm52 °FSunny.2 mph47%30.07 "Hg10 mi
11:30 am50 °FSunny.2 mph58%30.09 "Hg10 mi
11:00 am48 °FSunny.2 mph66%30.09 "Hg10 mi
10:30 am46 °FSunny.2 mph66%30.09 "Hg10 mi
10:00 am45 °FSunny.No wind76%30.09 "Hg10 mi
9:30 am43 °FClear.2 mph81%30.09 "Hg6 mi
9:00 am39 °FClear.2 mph87%30.09 "Hg6 mi
8:30 am37 °FClear.2 mph93%30.07 "Hg5 mi
8:00 am36 °FFog.2 mph93%30.07 "Hg3 mi
7:30 am34 °FClear.2 mph93%30.07 "Hg4 mi
7:00 am36 °FClear.2 mph93%30.04 "Hg3 mi
6:30 am36 °FClear.3 mph87%30.04 "Hg10 mi
6:00 am36 °FClear.No wind93%30.04 "Hg10 mi
5:30 am37 °FClear.2 mph87%30.04 "Hg10 mi
5:00 am37 °FClear.2 mph93%30.04 "Hg10 mi
Weather by CustomWeather, © 2017

See weather overviewHow to use our weather pages